GFSCGP_850_thetae_144.txt.gz
Theta_e
307 311 311 309 307 307 307 308 308 309 308 307 309 308 309 309 309 309 311 312 312 312 312 312 313 314 314 315 311 310 311 311 315 321 330 332 332 331 335 335 335 335 324 324
306 308 305 304 304 305 305 306 307 307 306 306 307 308 309 309 311 311 310 309 309 310 310 310 311 312 314 314 315 315 312 313 315 317 322 329 332 333 334 335 336 335 334 327
305 305 303 304 305 305 305 305 305 305 305 307 307 308 308 310 310 309 309 309 309 309 309 310 311 312 313 314 315 315 314 312 314 317 317 325 332 333 334 332 334 334 333 332
305 303 303 304 304 304 305 304 304 304 305 305 306 306 308 309 310 309 308 308 308 309 310 310 311 310 311 315 316 316 317 315 314 319 318 321 330 332 332 332 330 332 333 332
305 304 304 304 304 303 305 303 304 304 305 305 306 306 309 310 309 307 308 308 308 309 310 309 307 306 306 312 316 319 319 321 321 320 325 323 329 332 334 332 331 333 333 334
303 302 303 303 302 302 303 303 304 305 306 305 306 305 306 306 305 307 308 309 309 307 305 304 303 303 302 310 313 317 321 324 324 326 331 331 332 335 336 333 331 333 336 336
303 303 302 302 303 303 303 304 304 305 307 306 305 303 305 304 307 309 309 307 305 303 301 299 299 299 300 303 303 307 310 314 319 327 330 331 334 334 333 332 335 335 334 334
304 304 303 302 302 302 302 303 303 303 303 304 304 303 304 305 308 307 308 306 303 301 299 298 298 298 298 301 299 300 304 307 309 315 323 330 332 331 330 328 328 328 322 322
304 303 302 302 302 301 303 302 303 302 303 303 303 304 305 307 308 307 307 304 302 301 300 298 297 297 298 297 300 298 298 303 305 306 310 314 322 325 325 324 323 323 323 322
303 302 302 302 302 303 302 303 305 305 305 302 303 304 305 308 308 307 305 303 301 300 299 298 296 296 299 298 298 299 298 298 301 303 304 306 309 316 318 319 319 318 319 318
303 302 302 301 301 302 304 304 304 305 304 304 304 305 309 307 306 306 305 303 301 300 298 296 296 297 297 297 296 297 299 296 298 301 299 301 303 307 313 316 317 318 318 320
302 302 301 301 302 302 303 304 305 306 305 306 307 305 307 306 305 304 304 303 301 300 298 296 294 293 296 296 296 295 297 298 294 300 296 301 299 300 302 304 307 309 311 312
302 302 301 302 303 303 303 304 304 304 305 305 306 304 307 305 304 303 303 301 300 299 297 295 294 291 291 295 295 295 294 297 294 294 298 305 302 301 300 302 305 305 305 306
301 301 301 302 303 304 303 303 303 304 305 304 304 304 305 305 303 302 301 300 299 298 296 295 293 291 289 291 294 295 296 296 292 291 292 294 298 300 301 299 305 304 306 306
303 302 302 302 302 302 302 302 303 304 304 304 304 304 305 303 303 300 300 298 297 296 295 293 292 291 289 290 291 294 296 296 295 292 291 292 295 301 301 302 303 305 306 306
304 305 303 304 303 303 304 304 304 303 303 304 304 304 303 301 300 299 298 296 295 294 293 292 291 290 289 288 288 291 292 293 292 291 293 295 297 297 298 301 303 303 304 305
304 304 304 303 303 303 304 304 303 302 302 303 303 303 301 301 299 298 296 295 294 292 291 290 290 289 288 287 286 287 290 292 290 292 291 289 293 296 298 300 300 301 302 303
304 304 303 304 304 304 304 302 301 302 302 301 300 300 299 299 298 296 295 294 292 291 290 289 289 288 288 287 286 285 285 285 286 288 287 290 292 294 296 296 296 299 300 301
303 303 304 305 303 303 302 302 302 302 302 300 300 300 299 298 298 296 294 292 291 290 289 288 288 287 287 286 285 285 285 285 285 284 284 285 286 289 292 294 295 295 296 297
303 303 305 304 303 303 305 301 300 300 304 299 299 299 298 297 299 298 294 292 291 289 288 287 287 287 287 286 285 286 286 285 285 284 284 285 285 286 288 291 292 292 295 296
303 303 305 303 304 303 302 300 300 303 303 299 298 298 296 296 295 294 292 291 290 289 288 287 287 286 286 285 285 286 286 284 284 284 284 285 285 285 285 286 286 288 289 289
303 304 304 303 303 303 300 300 302 301 299 297 297 296 295 294 293 292 291 290 289 288 287 286 286 286 286 285 285 285 285 283 283 283 285 286 285 284 284 284 285 285 286 286
304 304 305 304 305 301 300 300 297 297 297 296 296 294 293 292 291 290 289 289 287 287 286 285 285 285 285 285 284 284 283 283 282 283 283 284 285 284 283 283 283 284 284 283
301 300 303 302 301 301 299 297 297 297 296 296 294 293 291 290 289 288 288 288 287 286 285 285 285 285 285 284 284 283 282 282 282 283 283 283 283 284 283 282 282 282 283 283
302 301 301 300 300 300 298 298 297 296 295 294 292 290 289 288 288 287 286 286 285 285 284 284 284 284 283 283 283 282 281 281 281 281 282 281 281 281 282 282 282 281 281 282
300 301 302 302 301 300 299 296 297 296 294 291 290 289 287 285 285 285 284 284 283 282 282 282 282 282 281 281 281 281 281 282 282 281 282 281 281 281 281 281 282 282 281 282

GFSCGP_850_thetae_147.txt.gz
Theta_e
312 313 315 313 312 310 310 310 310 311 311 309 310 310 311 311 312 313 313 312 312 312 312 312 312 314 314 314 316 318 318 318 318 319 321 331 334 334 336 336 336 336 338 337
310 311 310 308 308 307 308 308 310 310 310 308 309 310 312 312 313 312 311 311 311 311 311 311 312 311 310 310 311 311 315 319 318 318 317 319 324 331 333 335 336 337 338 339
310 310 307 306 307 308 309 308 309 308 308 309 310 310 311 312 311 310 310 310 310 311 312 311 310 309 309 307 307 309 311 313 321 319 318 318 319 323 330 333 335 337 337 338
310 308 306 307 307 307 308 307 307 307 307 308 309 308 311 312 312 310 309 310 311 310 309 308 307 306 306 306 304 306 311 315 317 323 322 320 321 321 327 331 333 335 338 337
309 307 306 307 307 306 307 307 306 306 307 308 309 309 311 312 311 309 311 310 308 308 306 305 304 304 303 302 302 303 309 314 318 321 323 326 329 325 320 329 333 335 335 336
307 306 306 307 306 305 305 306 307 308 308 310 311 309 310 310 309 311 310 308 307 306 305 304 304 303 302 301 302 303 304 308 312 316 319 320 324 331 328 328 329 335 334 333
305 306 305 304 305 306 306 307 308 309 310 311 310 308 308 308 310 311 309 307 306 305 304 303 302 302 302 300 301 303 303 303 305 308 312 318 323 328 332 330 331 334 334 334
307 307 306 306 306 306 305 305 306 306 309 310 308 307 308 307 309 309 308 306 306 305 304 304 303 301 300 299 299 301 301 301 302 303 305 311 318 323 329 332 333 333 333 334
308 307 305 305 305 304 307 305 307 306 306 306 307 308 307 307 310 308 306 305 304 304 303 302 301 299 297 297 295 299 299 300 300 301 302 305 310 314 317 325 331 331 330 330
308 308 306 305 304 304 304 306 307 308 308 307 307 306 307 310 309 308 306 305 304 304 303 301 299 298 296 294 294 294 299 298 297 300 299 300 304 306 308 311 319 327 328 328
306 306 305 304 304 305 306 305 305 306 307 307 306 309 310 309 308 308 306 305 304 303 302 301 299 298 295 293 292 293 297 298 296 298 296 298 303 303 303 305 309 314 318 321
306 306 306 305 305 305 305 306 307 308 307 307 307 306 308 309 307 305 305 304 303 302 302 300 299 297 293 292 292 292 294 295 295 294 298 294 298 302 301 302 304 307 309 312
305 304 304 304 305 304 304 305 306 306 306 305 306 305 309 307 305 304 304 303 302 301 301 299 298 296 293 292 291 291 292 293 295 291 296 293 297 300 300 299 301 303 305 307
304 304 305 305 306 307 304 305 305 306 306 305 305 305 306 307 306 304 302 301 300 300 299 298 296 295 294 292 290 290 290 291 292 292 292 292 294 300 302 300 301 300 302 303
304 304 304 303 304 304 304 305 304 304 304 305 305 305 306 306 305 302 301 300 299 299 298 296 295 294 293 292 291 289 289 289 289 291 290 291 290 293 297 301 302 303 301 300
303 306 305 304 303 303 303 304 304 304 304 305 305 305 306 303 302 301 301 298 298 297 296 295 294 293 292 291 291 289 288 288 288 289 288 289 290 290 291 292 294 296 296 297
305 305 305 305 304 304 305 305 305 305 305 305 305 305 303 302 301 300 299 297 297 296 294 294 293 292 291 291 290 289 288 288 288 288 287 288 288 289 289 290 291 293 293 296
306 305 305 305 305 305 306 306 305 304 304 304 303 302 301 301 300 299 297 297 295 295 293 293 292 291 291 290 290 289 289 288 288 287 287 287 287 288 289 290 290 291 293 299
304 305 305 306 305 306 305 304 304 304 305 304 302 302 301 300 300 299 297 296 294 294 293 292 291 290 290 290 289 289 289 289 287 286 286 287 287 287 288 288 289 290 290 292
304 305 306 305 305 304 307 304 302 303 304 302 301 301 300 300 302 302 296 294 294 293 292 291 290 290 290 289 288 288 289 288 287 286 286 287 287 287 287 288 288 289 289 290
304 305 305 306 306 306 305 303 302 304 306 301 300 300 299 299 298 296 295 293 292 292 291 290 289 289 289 289 288 288 288 287 286 285 286 286 286 287 287 287 287 287 288 287
305 305 306 305 306 305 303 303 303 304 300 300 299 298 297 297 296 295 293 293 292 291 290 289 289 288 288 288 287 287 287 286 285 285 285 285 285 285 285 285 285 285 285 285
306 308 307 306 306 303 303 304 302 301 300 298 298 297 297 296 294 293 293 292 291 290 289 288 288 288 287 287 286 286 286 285 284 284 283 283 283 283 283 283 284 284 284 284
304 303 305 305 304 304 302 301 300 299 298 297 297 296 295 294 292 292 291 291 290 289 288 287 287 287 286 286 285 285 284 283 283 283 283 284 283 283 283 283 284 284 283 282
305 303 304 303 303 302 302 301 299 298 297 297 295 294 292 291 291 290 289 289 288 287 286 285 285 285 284 284 284 284 283 282 282 282 283 283 282 283 283 283 283 283 282 281
303 303 304 304 304 303 302 299 298 297 296 295 294 293 291 289 288 287 287 286 285 284 283 283 282 282 282 282 282 282 281 281 281 281 282 282 282 282 282 282 282 283 282 281

GFSCGP_850_thetae_150.txt.gz
Theta_e
313 314 315 316 313 312 311 311 312 313 313 311 310 310 310 312 314 314 313 313 312 312 313 312 311 310 308 309 308 307 307 307 316 318 318 319 320 326 334 338 337 340 339 339
314 313 314 312 311 310 311 310 310 312 312 310 310 309 311 313 314 312 312 312 313 312 310 309 309 308 307 306 306 306 307 308 308 312 318 321 320 318 322 332 332 335 339 339
312 313 310 310 310 309 310 310 310 311 310 309 309 310 312 313 312 311 311 312 310 309 308 308 307 306 305 304 304 305 305 306 308 310 311 319 319 320 321 320 330 336 336 336
312 312 309 309 308 309 309 309 309 309 308 307 310 308 312 313 312 312 312 310 309 308 308 307 306 306 305 304 302 302 304 305 305 309 312 315 319 322 323 327 328 324 336 338
311 311 308 308 309 309 309 308 308 308 306 307 308 308 310 314 313 313 310 308 308 307 307 306 305 305 304 303 302 300 300 303 304 306 308 310 313 317 322 325 328 327 330 331
310 308 308 308 308 307 306 306 307 308 308 308 310 311 312 312 312 312 310 308 307 307 306 306 305 304 303 301 301 300 298 299 302 303 306 308 309 312 315 319 324 329 328 334
309 308 307 306 306 306 307 307 309 310 309 310 312 310 311 311 312 310 309 307 307 306 306 305 304 302 300 299 298 299 301 299 299 301 303 305 306 309 312 315 319 322 330 330
310 308 307 307 306 307 309 307 308 307 310 311 310 309 310 312 310 309 308 307 305 305 305 304 303 301 299 297 295 296 297 299 298 298 300 301 303 306 308 310 316 323 329 331
310 310 307 307 307 306 307 305 308 308 307 307 307 309 308 311 310 308 307 306 305 305 304 304 303 301 299 297 295 294 295 296 297 296 297 299 300 304 305 308 310 319 324 329
309 308 307 306 305 305 305 306 307 307 310 308 309 309 311 311 310 309 307 306 305 304 304 303 302 301 299 297 294 293 293 295 296 295 294 297 299 300 303 304 307 313 315 322
308 308 308 307 305 305 306 305 305 306 309 308 308 309 310 309 308 308 306 306 304 304 303 302 301 300 298 295 294 292 292 292 295 294 293 295 297 298 300 301 305 308 309 312
307 307 306 306 306 306 306 307 309 311 310 310 310 308 310 309 307 306 305 304 303 303 302 301 300 298 296 294 293 292 291 290 292 292 292 292 293 295 298 297 301 307 304 306
307 305 306 306 306 306 305 305 306 309 307 309 307 305 309 308 307 306 304 303 302 301 301 300 298 297 295 294 293 292 290 290 291 292 290 291 291 292 295 296 299 302 302 301
305 304 305 306 306 307 307 305 306 307 307 305 306 306 308 308 306 305 303 302 301 300 300 299 297 296 294 293 292 291 290 289 289 290 289 289 290 290 291 294 296 299 301 299
305 304 304 305 305 305 306 306 305 306 306 306 305 304 307 306 305 303 302 301 299 299 298 297 296 295 294 293 292 291 290 289 289 289 289 288 289 289 290 291 296 298 299 300
303 305 306 306 304 304 304 303 305 305 304 304 304 305 306 304 303 302 301 300 299 298 297 296 295 294 293 292 291 290 290 290 289 288 288 288 289 288 289 290 292 297 300 299
305 304 306 305 304 304 304 303 304 304 305 306 306 305 304 303 302 301 300 299 298 297 296 295 294 293 292 291 291 290 290 290 289 288 287 287 288 288 288 289 289 291 292 296
305 305 307 306 306 305 305 306 306 306 306 305 304 304 303 302 301 301 300 299 297 296 295 294 293 292 292 291 290 289 290 289 289 287 287 287 287 287 288 288 289 289 290 291
305 306 306 306 306 305 306 306 305 304 304 305 305 303 302 302 301 301 300 298 296 295 294 293 292 291 291 291 290 289 289 289 288 286 286 287 287 287 287 287 288 288 289 289
304 306 308 307 306 306 308 305 304 304 303 304 303 302 301 301 302 302 298 296 294 294 293 292 291 290 290 290 289 288 288 288 286 286 286 286 286 286 286 286 287 287 287 287
305 306 307 307 307 307 306 304 303 304 306 303 302 301 301 300 299 298 297 294 294 294 292 291 290 290 289 289 288 288 287 286 285 285 285 284 285 285 285 285 285 285 285 286
306 306 306 306 306 307 305 304 304 305 302 301 300 299 299 298 298 297 295 294 294 293 292 290 289 288 288 288 287 286 286 285 284 284 283 284 284 284 284 284 284 284 284 284
306 308 308 308 307 305 304 306 304 303 302 300 299 298 298 298 297 295 294 293 292 291 290 289 288 287 287 286 286 285 284 284 283 283 283 284 284 283 284 284 284 284 284 283
304 305 309 306 306 305 304 303 302 301 300 299 298 298 297 296 294 293 292 291 290 289 287 286 286 285 285 284 284 284 283 282 282 282 282 283 283 283 283 283 283 283 283 282
307 305 306 304 304 304 304 302 301 299 298 298 297 296 294 293 292 291 290 289 287 286 285 284 283 283 283 282 282 282 281 281 281 280 281 282 282 282 282 282 282 283 283 282
305 305 306 305 305 303 303 301 299 298 297 297 296 295 293 291 290 289 288 287 285 283 282 282 281 280 281 280 280 280 280 280 280 280 281 282 281 281 282 282 282 282 282 282

GFSCGP_850_thetae_153.txt.gz
Theta_e
311 309 310 310 311 311 310 310 308 308 309 309 308 308 307 309 312 311 312 310 309 308 307 307 306 306 306 305 305 305 305 306 307 307 307 307 310 318 320 325 330 325 332 335
310 311 312 312 310 310 309 309 308 309 310 307 305 304 305 309 310 311 309 309 308 307 307 306 305 305 305 305 304 304 304 304 305 305 306 307 308 308 315 320 325 325 332 334
310 312 310 310 310 310 309 309 308 308 307 307 306 304 305 309 311 310 309 308 307 307 306 305 305 304 304 304 303 303 304 304 304 304 305 306 307 309 309 313 319 324 327 332
310 311 309 308 308 308 307 308 308 308 306 304 304 302 309 310 311 309 308 307 307 306 305 305 305 305 304 302 301 302 302 303 303 303 303 304 304 306 309 310 311 316 323 327
309 309 307 308 308 309 308 306 306 306 304 303 304 303 304 311 311 308 307 307 306 306 305 305 304 304 302 301 300 299 299 300 301 302 302 302 303 304 305 309 310 311 315 321
308 307 307 307 307 306 305 305 305 304 304 304 305 305 306 310 311 308 307 307 306 306 305 305 304 303 302 300 300 299 298 297 300 302 302 301 301 302 303 305 308 311 313 313
308 307 306 306 305 305 306 305 304 306 304 305 308 307 311 310 309 308 306 305 305 304 305 304 303 303 302 300 299 298 296 296 297 299 300 300 299 300 300 302 305 309 312 314
308 307 306 305 305 305 304 305 304 306 308 306 308 307 311 308 308 307 306 305 305 304 304 303 303 302 301 300 298 297 295 294 295 298 298 299 297 298 299 300 302 305 308 311
309 309 305 306 306 305 306 303 306 306 305 304 304 311 310 309 307 306 306 305 304 304 303 303 302 301 300 299 297 295 294 293 293 295 296 298 295 296 297 299 300 302 305 308
308 307 306 305 305 304 304 304 305 304 308 307 305 309 311 310 308 307 305 305 304 303 303 302 301 300 298 297 295 294 293 292 292 293 295 296 292 293 294 296 299 301 303 304
306 307 307 304 304 304 303 304 304 304 306 307 307 308 309 309 307 306 305 304 303 302 301 301 299 298 296 296 294 293 292 291 291 291 294 292 291 292 292 294 297 299 301 302
307 306 306 306 305 305 305 307 305 303 305 305 303 305 307 306 305 305 304 303 302 301 300 299 298 296 296 294 293 292 291 291 291 290 291 291 291 290 291 292 294 297 298 300
305 304 306 304 304 305 304 304 306 308 304 308 303 306 307 307 305 304 303 302 300 300 299 298 297 295 294 293 292 291 291 290 290 289 289 290 291 290 289 291 292 294 297 299
306 305 304 304 306 305 305 305 304 307 304 304 303 302 307 306 305 304 302 300 299 299 298 297 295 295 294 293 292 291 290 290 290 289 288 288 289 289 289 290 290 292 294 296
304 303 303 304 304 304 304 305 305 304 306 305 305 305 307 304 303 301 301 299 299 298 297 296 295 294 293 292 291 291 290 290 290 289 288 288 288 289 289 289 289 290 292 293
302 301 305 305 306 306 304 303 303 304 304 304 304 305 303 303 302 301 300 299 298 297 296 295 294 293 292 291 291 290 290 290 289 289 288 288 288 287 288 289 290 289 290 291
302 303 305 305 304 304 303 303 303 303 304 304 304 305 302 301 301 301 300 299 297 296 295 295 293 292 291 291 290 290 289 289 289 288 287 287 287 287 287 287 288 289 289 289
304 303 305 305 305 306 304 304 305 306 306 305 304 302 301 301 301 300 299 298 296 295 294 293 292 291 291 290 290 289 288 289 288 287 286 286 286 286 286 286 287 287 287 288
303 303 304 302 305 305 306 305 305 304 304 305 303 301 301 301 301 300 298 297 295 294 293 292 291 291 290 289 289 288 287 287 287 285 285 285 285 285 285 285 285 285 285 286
304 304 302 304 304 302 305 304 304 303 301 303 302 301 300 301 299 299 298 296 294 294 293 292 290 289 289 288 288 287 286 286 285 284 284 284 284 284 284 284 285 285 284 284
302 301 300 304 301 304 304 303 303 303 300 301 301 300 299 296 298 298 296 294 294 293 291 290 289 288 288 287 287 286 285 285 284 283 283 283 284 283 284 284 284 284 284 283
298 299 299 301 298 301 304 303 303 301 302 301 300 299 298 298 298 295 294 293 292 291 290 289 288 287 286 286 285 284 284 283 282 282 282 283 283 283 283 283 283 283 283 283
300 298 299 300 301 305 304 303 303 303 301 300 299 298 298 297 295 294 292 291 290 289 288 287 286 285 284 284 283 282 282 282 282 281 281 282 282 282 282 282 282 282 282 282
304 303 298 302 304 304 303 302 301 301 300 299 298 298 296 294 293 292 290 289 289 288 286 285 284 283 282 281 281 281 280 280 281 281 281 281 281 281 282 282 282 282 282 281
301 303 302 302 304 303 302 301 300 299 298 298 297 296 294 292 291 289 288 288 287 285 284 283 282 281 280 280 280 279 279 280 280 280 281 281 281 281 281 281 281 281 281 281
304 302 301 299 302 302 302 300 299 298 297 297 296 293 292 290 289 288 287 286 285 283 282 281 280 280 279 279 278 279 279 279 279 280 281 281 281 281 281 281 280 280 280 280

GFSCGP_850_thetae_156.txt.gz
Theta_e
309 307 307 308 308 310 309 309 308 308 309 308 307 308 308 309 310 308 308 307 307 306 305 304 304 304 304 304 303 303 303 303 303 304 304 305 305 306 307 307 313 319 327 330
308 308 308 309 310 308 309 309 308 307 308 307 305 306 304 307 309 308 307 307 306 305 305 305 304 303 303 302 302 302 302 302 302 302 303 303 304 305 305 306 307 307 312 322
307 310 310 310 309 309 308 308 308 307 306 306 305 304 305 309 308 307 307 306 305 305 305 304 304 303 303 302 301 301 301 301 301 301 302 302 303 304 304 305 306 307 308 308
307 309 309 308 307 307 307 307 307 306 305 305 303 302 306 309 308 307 306 305 305 305 304 304 303 303 302 302 301 300 300 300 300 300 301 301 302 302 303 303 304 305 306 308
308 307 307 307 308 307 306 306 305 305 303 302 303 301 301 308 307 306 305 305 305 305 304 303 302 302 302 302 301 299 299 299 299 299 299 300 301 301 301 302 303 304 305 306
307 307 306 306 305 304 304 304 304 302 301 301 302 301 302 309 308 306 305 305 305 304 304 303 303 303 302 301 300 298 298 297 297 298 298 299 300 300 300 299 300 302 303 304
306 306 305 305 305 305 304 303 302 304 303 303 305 303 308 308 307 306 304 304 304 304 303 303 303 302 301 300 299 298 297 297 297 297 297 298 300 300 298 297 297 298 299 301
305 307 304 304 304 304 303 303 304 307 307 306 306 311 310 307 306 306 306 304 304 304 303 303 302 301 299 298 297 296 295 295 295 295 295 297 298 298 297 295 295 296 297 300
307 307 304 304 305 304 304 304 304 305 304 303 307 310 309 307 306 305 304 304 303 303 302 302 300 299 297 296 295 294 294 293 293 293 293 295 296 296 294 294 295 294 295 298
308 306 304 304 304 303 304 303 304 303 305 306 304 310 309 309 307 305 303 303 302 302 301 300 298 297 296 295 294 293 293 292 292 292 291 291 293 293 292 292 293 293 294 297
306 306 305 304 303 303 302 302 303 304 305 308 307 307 307 309 307 305 304 303 302 301 300 299 297 297 296 294 293 292 291 291 291 291 290 290 290 291 291 290 291 292 293 295
306 306 305 305 304 303 303 304 303 300 302 302 302 304 306 304 304 304 303 302 300 299 298 298 296 295 294 294 293 292 291 291 291 290 290 289 289 289 290 290 290 291 292 294
304 304 304 304 303 304 303 303 305 303 303 306 303 305 306 305 304 303 302 300 299 299 298 297 296 295 294 293 292 291 291 290 290 290 289 289 288 289 288 289 290 290 291 292
305 304 305 306 305 303 303 303 306 306 304 305 305 304 306 304 303 302 300 299 299 298 297 296 295 294 294 292 291 291 290 289 289 289 289 288 288 287 288 289 289 289 289 291
303 303 303 303 303 304 303 304 303 305 304 305 304 305 305 305 303 301 300 299 298 297 296 295 295 294 293 291 291 290 290 289 289 289 288 287 287 287 287 287 287 287 288 289
301 301 303 303 304 304 304 303 302 303 304 305 304 304 303 302 301 300 299 298 297 296 295 295 294 293 291 291 290 289 289 288 288 288 286 286 287 287 287 287 286 286 287 287
301 303 303 303 304 304 303 303 302 303 302 302 302 303 300 300 300 299 299 297 296 295 294 294 293 292 291 290 289 289 288 287 287 286 285 286 286 285 286 286 286 286 285 286
301 302 303 304 303 304 303 302 303 303 304 303 302 301 300 300 299 298 297 296 296 294 294 293 291 291 290 289 288 288 287 287 286 285 284 285 285 284 284 285 285 285 285 284
302 302 303 303 304 303 303 304 303 304 304 303 301 300 299 298 298 296 297 295 294 294 292 291 290 290 289 288 287 287 286 285 285 284 283 284 284 284 284 284 284 284 284 284
303 301 301 303 303 302 302 303 304 302 300 302 301 300 300 299 298 295 295 294 293 292 291 290 289 289 288 287 286 285 285 284 283 282 283 283 283 283 283 283 283 283 283 283
301 300 299 302 296 302 303 303 303 303 301 300 300 299 299 295 298 297 294 293 292 291 290 289 289 288 286 285 285 284 283 283 282 282 282 282 282 282 282 282 282 282 283 282
299 298 298 299 297 302 303 303 303 299 300 299 299 298 298 298 295 293 292 292 291 290 289 289 287 286 285 284 283 283 282 281 281 282 282 282 282 281 282 282 282 282 282 282
299 297 299 299 299 302 303 303 302 302 300 299 299 298 297 294 293 292 291 290 289 289 288 286 285 284 283 282 282 281 281 281 281 281 281 281 281 281 281 281 281 281 281 281
301 300 298 300 302 302 302 302 302 301 300 298 298 297 295 293 292 291 290 289 288 287 285 284 283 282 281 281 281 280 280 280 280 281 281 281 280 280 281 280 280 280 280 281
301 301 300 299 302 301 300 301 300 299 298 297 296 295 294 292 290 289 288 287 286 284 283 282 282 281 280 280 280 279 279 279 279 280 280 280 280 280 280 280 280 279 280 280
302 300 298 298 301 300 299 299 299 298 297 296 295 292 290 291 289 288 287 286 284 283 282 281 280 280 279 279 279 279 279 279 279 279 280 279 279 280 280 279 279 279 279 279

GFSCGP_850_thetae_159.txt.gz
Theta_e
308 306 306 306 307 309 310 308 308 307 307 308 308 307 307 308 307 306 306 306 305 304 304 303 302 302 302 301 302 302 301 301 301 301 301 301 301 301 302 302 303 304 305 305
307 306 307 307 308 309 308 308 307 307 306 306 305 306 305 307 306 306 306 305 305 304 303 303 302 302 301 301 301 301 301 301 301 301 301 301 301 301 301 302 302 303 303 304
306 308 309 308 309 308 307 306 307 307 305 303 304 303 308 307 306 306 305 305 304 304 303 303 302 302 301 301 301 300 300 300 300 300 300 301 301 301 301 301 302 302 302 303
306 307 308 308 308 306 306 307 306 306 305 304 303 303 306 307 306 305 304 304 304 304 303 303 302 302 301 301 300 300 300 299 299 299 299 299 299 299 300 300 301 302 302 303
307 307 307 307 306 306 305 305 305 305 302 302 302 302 302 307 307 305 304 304 304 304 303 303 302 302 301 300 300 300 299 298 298 298 297 297 297 298 299 300 301 301 301 302
306 307 306 305 304 305 303 304 302 300 300 301 302 301 299 307 306 305 304 304 304 304 303 303 302 301 301 300 299 299 297 296 296 295 295 295 296 297 298 299 299 300 299 299
306 305 304 305 304 304 302 302 303 303 302 303 303 301 300 307 305 305 304 304 304 303 303 302 302 301 300 299 298 297 295 295 295 295 295 295 295 296 296 295 295 296 296 296
306 307 303 303 304 304 302 303 304 306 305 305 304 303 307 306 306 306 305 304 304 303 302 302 301 300 298 297 296 295 294 294 293 294 294 294 294 294 295 296 296 295 293 293
306 307 303 303 303 305 303 304 304 304 303 303 303 309 307 305 304 304 304 304 303 303 302 301 299 298 297 296 294 293 293 293 293 293 293 293 293 293 293 294 294 293 291 292
307 305 304 303 304 303 304 303 304 303 306 304 303 309 306 307 306 304 303 303 302 301 301 299 297 296 295 294 293 292 292 292 292 292 292 292 293 292 292 292 292 292 292 291
306 305 304 303 303 302 302 302 302 303 304 306 307 305 305 308 306 304 303 303 302 301 300 298 296 295 295 294 293 292 291 291 291 291 291 291 291 291 291 290 290 290 290 291
305 305 303 303 304 302 301 302 303 302 304 303 303 303 304 305 304 304 303 302 300 300 299 297 296 295 295 294 293 292 292 291 290 290 289 289 289 289 290 289 288 288 288 290
304 304 304 303 302 303 302 303 303 302 302 306 304 303 304 303 303 304 303 301 300 299 298 296 295 295 294 293 292 291 291 290 290 289 289 288 288 289 288 288 287 287 287 288
306 304 305 306 305 302 302 302 304 303 303 303 304 304 305 303 303 302 301 300 299 298 296 296 295 294 293 292 291 290 290 289 289 288 288 287 287 288 287 287 286 286 286 287
304 305 303 303 303 303 303 302 304 304 303 304 304 304 305 304 302 302 300 299 298 297 296 295 294 293 292 291 291 290 289 289 288 287 287 286 286 286 286 286 286 286 285 285
301 302 302 302 303 303 303 302 301 302 303 302 303 302 303 305 303 301 300 298 297 296 296 295 294 292 291 291 290 289 288 288 287 287 286 285 285 285 285 285 285 285 285 284
302 303 302 303 303 302 302 302 302 302 302 303 303 302 300 300 300 299 299 298 297 296 295 293 292 291 290 290 289 288 287 287 287 285 285 285 285 284 284 284 284 285 285 284
302 303 303 305 303 304 304 302 302 302 303 302 301 300 300 299 299 299 298 297 296 295 293 292 291 290 290 289 288 287 286 286 285 284 284 284 284 283 283 283 283 284 284 284
302 302 304 305 304 303 303 303 302 302 303 302 299 297 296 297 297 296 297 296 294 293 292 291 290 289 289 288 287 286 285 285 284 284 283 283 283 283 283 282 283 283 283 283
301 302 305 303 303 303 301 302 303 302 301 301 299 297 297 299 298 294 295 293 293 292 290 290 289 289 288 287 286 285 284 283 283 283 282 282 282 282 282 282 282 282 282 282
302 302 300 302 300 301 301 302 302 303 301 300 299 299 298 296 297 296 293 292 291 290 289 288 288 288 286 285 284 284 283 282 282 282 282 282 282 281 281 281 281 282 282 282
299 302 297 298 296 301 302 302 303 300 300 300 300 299 299 297 294 292 292 290 289 289 289 288 286 285 284 283 283 283 282 282 281 281 281 281 281 281 281 281 281 281 281 281
299 297 299 299 299 300 303 302 301 301 301 299 299 298 297 294 292 291 290 289 289 288 287 285 284 283 283 282 282 282 281 281 281 280 281 281 280 280 280 280 280 280 280 280
300 298 297 300 301 300 301 301 301 301 300 298 298 297 296 294 292 291 289 289 288 287 285 283 282 282 282 281 281 280 280 280 280 280 280 280 279 280 280 280 279 279 279 279
299 300 300 300 300 300 300 300 300 299 298 298 297 296 295 294 291 290 289 288 286 284 283 282 282 281 280 280 280 279 279 279 279 279 280 279 279 279 279 279 279 279 278 278
300 299 298 298 301 299 300 299 299 298 297 296 295 293 292 292 291 289 288 286 284 283 282 281 281 280 280 279 279 279 278 278 278 279 279 278 278 279 279 278 278 279 278 278

GFSCGP_850_thetae_165.txt.gz
Theta_e
307 309 311 311 309 309 310 310 309 308 307 308 308 311 311 308 307 306 305 304 303 302 301 301 301 300 300 300 301 301 301 301 301 301 301 301 301 301 300 300 300 300 300 300
309 310 309 307 307 309 310 311 310 308 306 307 307 311 310 308 308 307 305 304 304 302 301 301 301 301 300 300 300 299 299 299 299 299 299 299 299 299 299 299 299 299 299 299
310 310 306 308 308 309 309 310 308 309 306 305 306 309 310 308 307 306 305 305 304 303 302 301 301 301 300 300 299 298 298 298 298 297 297 297 297 297 298 298 298 298 298 299
309 308 308 308 309 309 310 307 307 307 308 310 304 313 308 309 309 306 306 304 304 303 302 302 301 301 300 299 298 297 297 297 297 296 296 296 296 296 296 296 297 297 298 298
311 307 307 308 309 308 310 306 306 305 306 305 305 308 308 308 309 308 306 304 304 303 302 302 301 300 299 299 298 296 296 296 296 295 295 295 294 294 294 294 295 295 296 296
309 305 306 308 304 307 303 305 304 303 305 308 307 308 310 310 309 308 305 304 303 303 302 302 301 300 299 298 296 296 295 295 295 294 294 293 293 293 293 292 292 293 293 294
306 306 304 304 305 304 304 308 309 308 307 310 303 305 309 307 308 308 306 304 304 303 302 302 301 300 298 298 296 295 295 295 294 294 293 293 293 292 291 291 292 292 292 292
312 312 306 305 307 306 305 309 311 311 310 309 303 306 307 307 306 306 306 305 303 303 303 302 301 299 298 297 296 295 295 295 294 293 293 292 291 291 290 290 290 290 290 290
311 312 303 303 304 306 304 305 308 307 304 306 307 305 308 306 305 305 304 304 303 303 302 302 301 299 298 296 295 295 294 293 292 292 291 291 290 290 289 289 289 289 289 289
310 310 303 302 304 303 306 306 307 307 310 309 308 306 309 308 308 305 304 304 303 302 302 301 300 298 297 296 295 294 293 292 292 291 290 290 289 289 289 288 288 288 289 289
308 308 304 303 304 305 305 305 305 307 308 310 310 311 307 308 308 307 305 304 303 302 302 301 300 298 296 295 294 293 292 291 291 290 290 289 289 288 288 288 288 288 289 288
308 308 306 304 303 303 305 306 308 313 308 307 309 309 307 307 307 307 306 304 303 303 302 301 299 297 295 294 294 293 292 291 290 289 289 288 288 287 287 287 287 287 287 287
307 309 311 310 305 302 303 304 306 306 306 308 311 309 305 305 306 306 306 305 303 302 301 299 297 296 295 294 293 292 291 291 290 289 288 287 287 286 286 286 286 286 286 286
307 308 311 315 311 307 304 303 304 306 307 307 307 308 306 307 307 306 305 304 303 301 300 298 296 295 294 293 292 291 291 290 289 288 287 286 286 286 286 285 286 285 285 285
307 309 309 310 310 306 305 305 303 304 306 307 307 305 307 307 307 306 305 303 301 299 298 296 295 294 294 293 291 291 290 290 288 287 286 286 285 285 285 285 285 285 285 284
304 309 306 307 308 304 304 303 304 304 305 304 305 304 304 304 305 304 303 301 299 298 296 295 295 294 293 291 291 291 289 288 287 286 285 285 285 285 284 284 284 284 284 284
306 307 307 309 305 304 306 307 303 304 305 305 304 306 303 304 304 304 302 300 298 296 296 295 294 293 292 290 290 290 288 286 285 285 285 284 284 284 283 283 283 283 282 282
305 307 308 310 305 310 309 303 304 305 304 303 302 302 302 303 300 300 300 299 297 296 296 294 293 292 290 290 290 289 286 285 285 284 284 283 283 282 282 282 281 281 281 281
307 306 309 309 309 308 308 303 303 303 305 302 303 300 298 297 298 295 296 298 297 296 295 293 292 291 290 290 289 286 285 285 284 283 282 282 282 281 281 281 281 281 280 280
305 305 309 308 310 311 307 302 302 303 305 303 301 299 298 299 304 299 295 296 296 294 293 292 291 290 290 289 286 285 284 283 283 282 282 281 281 281 280 280 280 280 280 280
305 305 310 308 309 307 305 302 302 305 309 300 300 298 298 302 299 295 295 295 294 293 292 291 290 290 288 285 284 284 283 282 282 281 281 281 281 280 279 279 279 279 279 279
305 305 306 307 308 309 302 302 305 305 299 299 298 298 297 297 295 294 294 293 292 291 291 290 289 287 285 284 283 283 282 281 281 280 280 280 280 279 279 278 279 278 278 278
306 306 306 306 307 302 301 302 301 301 301 299 298 297 299 296 294 293 292 291 290 290 290 288 286 284 283 283 283 282 281 281 280 280 280 279 279 279 278 278 278 278 277 278
301 299 305 303 303 302 301 301 301 301 301 300 299 299 299 297 294 292 291 290 290 289 288 286 284 283 283 282 281 281 280 280 280 279 279 279 279 278 278 278 277 277 277 277
303 301 303 302 300 300 300 300 300 300 300 299 298 299 299 297 293 293 291 290 289 287 285 284 283 282 282 281 280 280 280 279 279 279 279 278 278 277 278 277 277 277 277 276
300 302 304 306 301 302 301 300 300 300 299 299 299 296 295 295 294 292 290 289 288 285 284 283 282 281 281 280 280 279 279 279 279 278 278 277 277 277 277 277 277 276 276 276

GFSCGP_850_thetae_171.txt.gz
Theta_e
318 319 322 323 323 324 325 326 327 327 323 320 321 322 322 319 319 319 318 316 314 312 309 307 306 305 304 303 302 301 301 301 301 301 301 302 303 303 303 301 299 298 298 298
321 320 321 322 323 322 323 324 325 326 321 316 321 321 322 321 319 319 318 317 315 313 309 307 306 305 305 303 302 301 301 300 300 301 300 300 301 301 301 301 301 300 298 297
324 323 318 320 320 319 321 323 324 325 322 316 318 320 321 321 319 318 318 317 315 313 310 307 306 305 304 303 302 301 300 300 299 299 300 300 301 301 300 300 300 299 298 297
321 323 321 319 319 320 321 321 321 321 321 321 319 320 321 321 320 319 317 317 316 313 311 308 307 305 305 303 301 301 299 299 299 298 298 298 299 299 299 299 299 298 299 298
321 321 320 320 320 320 319 317 318 319 320 321 320 318 320 321 320 319 318 316 315 313 311 309 307 306 304 303 302 300 300 299 298 298 297 297 297 297 298 298 298 298 298 298
319 319 318 320 319 319 317 316 316 317 318 320 320 320 321 321 320 320 318 316 315 313 311 309 308 306 304 302 302 301 300 299 298 297 297 296 296 296 297 297 297 297 297 297
320 318 318 315 317 318 316 317 320 320 320 320 320 321 321 320 319 319 319 316 314 313 311 310 308 305 304 303 302 301 300 299 298 297 296 296 296 295 296 296 296 296 296 295
321 321 318 316 316 318 317 318 322 323 323 323 321 318 320 317 316 315 316 316 315 313 312 310 308 306 304 303 301 300 299 299 298 297 296 296 295 295 295 295 295 295 294 294
319 320 319 317 315 317 319 318 319 321 320 320 321 322 317 316 315 314 314 315 314 313 311 310 308 307 304 302 301 300 299 298 297 296 295 295 294 294 293 293 294 294 293 293
318 321 317 316 313 315 317 317 318 318 319 321 321 320 320 316 315 313 314 314 313 313 311 309 308 307 304 302 300 299 298 297 296 295 295 294 293 293 293 293 293 292 292 292
317 317 314 311 312 316 314 314 315 317 318 319 319 319 319 318 317 316 315 313 313 312 311 309 308 306 303 301 300 299 297 297 296 294 294 293 292 292 292 292 292 291 291 291
318 318 320 314 314 312 311 315 316 319 317 320 321 320 316 315 316 315 314 313 313 312 310 309 308 305 303 301 299 298 297 296 294 293 292 292 292 291 291 291 291 290 290 290
315 316 321 319 318 311 311 313 312 315 317 315 321 320 316 316 314 314 314 313 312 311 310 309 308 304 302 300 299 297 296 294 293 292 291 291 291 291 291 290 290 290 289 289
310 313 317 319 318 317 316 315 313 313 315 316 316 317 317 315 313 313 313 313 312 311 310 309 307 303 300 298 296 296 295 294 292 291 291 291 290 290 290 289 289 289 289 288
311 313 314 314 314 314 314 316 316 314 312 313 314 314 315 314 314 314 313 312 312 311 310 309 307 301 297 296 295 295 294 292 291 290 290 290 289 289 289 289 288 288 288 288
310 315 312 313 313 315 315 315 315 316 315 314 313 314 315 313 314 313 313 312 312 311 310 308 306 301 298 298 296 294 292 291 290 289 289 289 289 288 288 288 288 287 287 287
312 313 313 313 312 313 317 317 316 316 316 316 315 313 313 314 314 311 311 311 311 311 309 307 304 301 298 296 295 293 291 289 289 289 288 288 288 287 287 287 287 287 287 286
311 313 314 313 311 316 313 312 313 314 314 314 315 315 316 314 312 309 309 310 310 310 308 305 302 298 296 294 293 291 289 289 288 288 287 287 287 286 286 286 286 286 286 286
309 311 313 312 314 313 313 312 313 312 313 313 313 314 312 309 307 307 308 309 309 308 305 302 299 296 294 293 291 290 289 288 287 287 287 286 286 285 285 285 285 285 285 285
310 310 312 311 311 312 312 311 311 310 312 312 312 312 311 308 309 310 306 307 307 304 301 298 296 294 292 290 289 289 288 287 286 285 285 285 284 284 284 284 284 284 284 284
310 310 310 312 311 309 309 308 309 310 312 312 311 311 311 310 309 306 305 304 302 300 297 295 293 292 290 289 288 288 287 286 285 284 284 284 283 283 283 283 284 283 283 283
310 310 310 310 312 311 309 310 310 311 311 310 309 309 308 307 305 304 302 300 298 296 294 293 292 290 288 287 287 287 285 284 284 283 283 283 282 282 282 282 283 282 282 282
310 312 312 309 309 309 311 311 309 308 309 309 309 307 306 303 301 300 298 296 295 293 293 291 290 288 287 286 287 286 284 283 283 282 281 282 281 281 281 281 281 281 281 280
307 308 311 310 309 310 310 309 307 306 308 307 307 306 303 301 299 297 296 295 294 293 291 290 288 287 286 284 284 283 282 282 282 281 281 280 280 280 280 280 280 280 278 277
307 307 309 310 309 309 308 309 308 305 305 305 304 303 302 299 298 297 296 294 293 291 290 289 288 287 285 284 283 282 282 281 281 280 280 280 280 279 279 280 279 278 278 276
307 308 310 310 308 310 308 308 306 305 304 303 302 301 300 299 297 296 294 293 291 289 288 288 287 285 284 283 282 281 281 280 280 280 280 279 279 279 279 279 279 279 277 276

GFSCGP_850_thetae_174.txt.gz
Theta_e
322 320 321 322 323 324 324 326 326 327 328 324 324 324 323 322 321 321 320 318 316 314 312 309 308 307 306 304 303 303 303 302 302 302 302 301 301 302 302 301 300 299 298 297
322 323 322 322 322 323 324 324 325 326 326 323 323 323 323 323 322 321 321 319 317 315 312 309 307 307 306 305 303 302 302 301 302 301 301 300 300 301 302 300 301 300 299 298
323 323 322 321 321 323 323 323 323 324 325 321 321 321 322 323 322 321 320 320 318 316 312 309 308 307 306 304 303 303 302 301 300 301 300 300 301 301 301 299 300 298 299 299
324 324 322 323 323 321 322 321 322 322 324 326 321 320 321 323 322 322 320 320 319 317 312 309 308 307 306 305 303 303 302 301 300 299 299 299 299 299 298 298 298 297 299 298
324 321 320 321 324 322 322 321 319 320 322 322 322 322 321 321 323 322 321 320 319 317 313 310 308 307 306 305 303 302 301 300 299 299 299 298 298 297 297 297 297 298 297 298
323 322 319 321 321 322 321 321 319 319 320 321 321 322 322 322 322 322 321 320 319 317 314 311 309 307 306 304 303 302 301 300 299 299 299 298 298 297 297 297 297 296 296 297
322 322 321 319 319 320 321 320 320 322 321 321 320 321 322 322 322 323 321 319 318 317 314 312 309 307 305 304 303 302 301 300 299 298 298 298 297 296 296 296 296 295 296 295
322 325 322 320 319 319 321 320 323 323 325 324 323 322 321 321 319 320 320 319 318 316 314 312 310 308 305 304 304 302 301 300 299 298 297 297 296 295 295 295 294 295 295 294
320 319 319 321 320 318 318 320 319 321 322 323 322 322 321 318 317 316 316 319 317 316 314 312 310 308 306 305 303 301 300 299 299 298 297 296 295 294 294 294 294 294 294 293
321 321 319 320 320 318 317 318 321 320 322 323 322 322 323 320 317 316 316 318 317 315 314 312 311 308 306 304 303 301 300 299 298 297 296 295 294 294 293 293 294 293 292 292
319 319 319 314 316 318 317 316 318 319 320 321 322 321 319 319 319 316 316 316 316 315 314 312 311 309 306 304 302 301 299 298 298 296 295 294 294 293 293 293 292 292 291 291
316 317 322 319 315 316 316 318 317 318 318 319 321 320 319 318 318 316 315 315 315 315 314 312 310 308 305 303 301 300 299 298 297 295 295 294 293 292 292 292 291 291 291 290
314 316 322 320 319 318 313 313 314 316 317 318 320 319 318 318 316 316 316 315 315 314 313 311 309 307 305 303 301 300 298 297 295 294 293 293 292 292 291 291 291 290 290 289
312 312 316 320 319 317 317 315 316 317 316 316 317 317 316 317 316 316 314 314 314 314 312 310 309 306 304 302 300 299 297 296 294 293 292 292 291 291 291 290 290 289 289 289
311 314 314 315 315 314 314 314 315 317 318 317 316 316 316 316 316 314 313 313 314 313 312 310 309 306 303 301 300 297 296 294 293 292 291 291 291 290 290 289 289 289 288 288
312 313 312 314 313 312 312 313 313 314 316 316 318 318 315 313 313 314 314 314 314 314 312 310 308 305 301 301 299 297 295 293 292 291 291 290 290 289 289 288 288 288 287 287
310 311 314 315 311 312 314 313 314 314 315 316 317 317 316 316 315 314 315 314 313 313 312 310 308 302 300 299 297 296 294 292 291 290 290 289 289 288 288 288 287 287 287 286
311 311 312 314 313 315 312 311 312 313 313 315 315 315 316 316 315 315 315 314 313 312 311 310 307 302 300 299 297 295 292 291 290 290 289 288 288 287 287 287 286 286 286 286
307 309 312 313 314 311 310 310 311 313 314 314 313 312 313 313 313 312 310 309 311 311 311 308 305 301 298 296 295 293 291 290 289 288 288 287 287 286 286 286 285 285 285 285
310 309 310 310 311 310 309 309 310 312 311 312 311 313 313 313 312 312 308 309 310 310 308 305 301 298 296 294 292 291 290 289 288 287 287 286 285 285 285 284 284 284 284 284
309 310 311 311 311 309 308 309 310 311 310 311 312 312 313 314 312 310 308 309 308 306 303 300 298 296 294 292 291 290 289 288 287 286 285 285 284 284 283 283 284 283 283 283
308 310 310 310 309 309 309 308 309 311 311 312 311 311 310 308 307 307 307 304 302 300 298 296 295 293 291 290 290 289 288 286 286 285 284 284 283 283 283 283 283 282 282 281
307 308 309 309 309 310 308 309 311 311 311 310 310 310 308 306 306 305 302 300 298 296 295 294 293 291 289 289 289 288 286 285 284 284 283 283 282 282 282 282 281 281 280 279
306 307 309 309 309 309 309 310 310 308 309 309 309 308 305 304 303 301 299 298 296 295 294 292 291 289 288 288 288 286 285 284 284 282 281 281 281 281 281 281 280 280 279 278
307 307 308 308 307 307 306 306 310 309 307 307 308 306 304 302 300 298 297 296 295 294 292 291 289 288 286 286 285 284 283 283 283 281 281 281 281 280 280 280 280 279 278 277
304 307 308 307 306 306 305 308 308 307 306 306 305 304 302 300 298 297 296 295 294 292 291 290 289 287 286 284 283 283 282 282 282 281 281 281 280 280 280 279 279 279 278 277

GFSCGP_850_thetae_177.txt.gz
Theta_e
320 316 316 316 317 320 321 322 322 321 322 323 322 320 319 319 319 318 317 317 315 313 312 310 308 308 308 306 304 303 303 304 304 304 303 301 301 301 301 300 299 299 298 298
318 319 319 319 319 320 320 321 322 321 322 322 320 319 320 319 319 318 317 316 314 313 311 309 308 307 307 305 304 303 302 303 303 302 301 300 301 301 301 300 299 298 297 298
321 322 322 321 320 320 319 320 321 321 320 320 320 319 319 320 320 319 318 317 315 313 311 309 307 307 307 305 304 303 302 301 302 302 301 300 301 300 300 298 298 297 298 298
323 322 322 323 322 320 320 319 320 320 318 319 318 320 316 317 320 319 319 317 315 313 311 309 308 307 307 306 304 303 302 300 300 301 300 299 299 299 298 298 297 297 297 297
323 323 322 323 322 320 320 320 320 318 316 316 318 317 318 316 320 320 318 318 316 313 311 309 308 308 307 306 303 303 302 301 300 299 299 299 299 298 298 297 297 297 296 296
321 321 320 321 319 318 320 320 319 317 315 317 317 318 317 318 317 320 319 318 316 313 310 310 309 308 307 306 304 303 301 301 300 299 299 299 299 298 298 297 297 296 295 296
320 320 320 320 320 319 318 318 318 318 317 318 317 318 318 317 317 317 319 318 316 312 311 310 308 307 307 306 305 302 301 301 299 299 298 299 298 298 298 297 296 295 295 295
321 321 319 319 320 320 318 318 318 320 320 319 318 317 317 316 317 321 320 318 316 312 311 310 308 307 307 306 305 302 301 301 300 298 298 298 298 297 297 296 294 294 294 294
321 321 319 318 320 319 317 318 318 319 319 319 317 318 318 316 315 314 318 317 315 313 311 310 308 308 307 306 305 302 301 301 300 298 298 298 297 297 296 294 294 294 293 293
319 320 319 319 318 316 317 317 318 317 320 320 318 318 318 316 315 314 314 316 315 313 311 309 309 308 306 306 305 302 301 300 299 298 298 297 296 296 294 293 293 293 292 291
316 317 319 318 316 315 315 317 315 317 318 319 318 316 316 316 315 313 314 316 314 312 311 310 309 307 306 305 304 302 301 299 299 298 297 296 295 294 293 293 293 292 291 291
315 316 319 320 318 317 313 315 315 316 316 315 317 317 314 314 313 313 314 316 315 314 312 311 309 308 306 305 304 303 301 299 299 298 296 295 294 293 293 292 292 291 291 290
314 313 318 319 317 317 315 314 315 316 314 316 319 318 315 314 314 315 313 316 315 314 313 311 309 308 306 304 303 302 301 299 298 297 295 294 293 292 292 292 291 290 290 289
312 312 316 317 317 315 316 315 314 315 316 315 314 314 313 314 313 314 315 314 315 314 313 312 309 308 306 304 303 302 300 299 298 296 294 293 292 292 291 291 290 289 289 288
310 311 313 314 314 314 314 313 314 314 315 317 317 317 316 314 312 313 314 314 314 314 312 311 309 307 304 303 302 300 300 300 297 294 292 292 291 291 290 290 289 288 288 287
310 311 312 312 312 312 312 313 312 311 312 312 314 316 314 314 314 314 313 314 314 313 311 310 307 305 304 302 301 300 300 299 296 293 292 291 290 290 289 288 288 287 287 287
309 308 309 310 309 312 313 312 312 311 311 312 313 313 312 313 315 315 312 313 313 313 311 310 308 305 304 302 302 301 300 297 294 292 291 290 290 289 288 287 287 287 286 286
307 309 310 310 309 311 311 310 311 312 312 312 312 313 313 313 313 314 314 315 313 314 312 311 306 305 304 303 301 300 297 296 292 291 290 289 289 288 287 287 286 286 285 285
307 307 308 309 309 309 311 310 310 309 311 311 311 312 311 310 310 311 311 313 313 313 313 311 306 306 303 302 300 298 296 294 291 290 289 288 288 287 286 286 285 285 284 284
307 307 307 307 309 308 308 308 307 308 310 309 310 310 309 311 309 308 309 311 311 311 310 307 305 303 301 299 297 297 295 292 290 289 288 288 287 285 285 284 284 284 284 283
305 308 309 310 309 309 308 307 308 308 308 308 309 309 311 310 310 310 310 310 310 310 309 307 303 302 299 296 296 295 292 290 289 289 288 286 285 284 284 283 284 283 283 282
299 298 303 304 307 308 307 307 308 307 310 309 310 311 309 308 308 308 307 306 305 303 301 302 301 297 296 296 295 292 291 290 289 287 285 285 284 283 283 283 283 283 282 281
301 302 302 304 304 307 306 307 308 309 309 309 309 308 307 307 305 304 301 299 297 297 296 297 297 296 295 293 292 291 290 289 287 285 284 284 283 282 282 282 282 281 280 279
303 304 300 304 305 306 307 308 307 307 307 309 308 308 307 306 303 300 299 297 297 296 296 297 296 294 291 290 290 290 289 288 286 285 284 283 282 281 281 281 280 280 279 278
299 303 304 303 304 306 306 305 305 308 307 307 308 308 305 303 300 299 297 296 295 295 294 294 293 291 289 289 289 288 287 286 285 283 281 281 281 280 280 280 280 279 278 278
301 301 301 302 304 304 304 305 306 305 306 306 307 305 303 302 299 297 296 295 295 294 292 292 291 289 288 288 287 286 285 284 284 282 281 281 280 280 280 279 279 278 278 277

GFSCGP_850_thetae_180.txt.gz
Theta_e
318 316 316 315 315 317 319 319 319 319 319 320 319 318 316 320 319 319 316 316 316 315 314 312 311 310 309 309 306 304 304 304 304 305 305 303 302 301 301 300 300 299 299 299
318 318 318 317 316 317 318 319 319 319 319 319 318 317 315 318 319 318 316 315 314 314 311 310 309 309 309 309 307 304 303 303 303 304 303 301 301 301 301 299 299 299 299 299
320 320 320 319 319 320 319 318 318 319 318 317 318 317 318 318 318 318 317 316 313 313 310 309 309 309 309 308 307 304 303 303 303 302 301 301 301 300 300 299 299 298 298 298
323 323 322 322 322 320 321 318 319 319 318 318 318 317 317 318 318 317 317 316 313 312 312 311 309 308 308 308 306 304 302 302 302 301 301 301 301 300 299 299 298 298 297 297
323 322 322 323 322 321 322 320 318 319 317 315 316 315 315 314 319 318 316 316 313 313 313 310 309 309 309 308 306 304 303 301 301 301 300 300 299 299 299 298 297 297 297 296
321 320 320 320 320 319 318 317 318 317 314 319 316 315 316 316 317 318 318 317 314 312 310 309 309 308 308 307 305 304 303 301 300 300 299 299 298 299 298 298 297 297 296 295
318 319 318 319 320 320 320 317 320 319 317 320 316 317 318 315 316 318 317 318 315 312 310 309 308 307 308 306 305 304 303 302 300 299 298 298 298 298 298 298 297 296 295 295
320 320 317 317 318 320 320 320 320 321 320 319 316 317 316 314 315 316 317 318 316 312 310 309 309 308 308 307 305 303 303 302 300 299 298 298 298 298 297 297 296 295 295 294
322 321 318 319 317 318 319 319 317 318 317 318 316 315 316 315 315 312 316 317 314 310 309 308 308 308 307 307 306 305 303 301 301 299 298 298 297 297 297 296 296 295 294 293
318 319 318 317 317 317 317 317 319 318 321 321 318 316 317 315 314 314 315 313 311 309 308 307 307 307 307 307 306 304 303 302 301 300 298 298 297 297 296 295 295 294 293 292
315 316 316 316 317 314 314 314 316 317 319 320 320 318 313 315 316 312 313 314 312 310 309 307 307 307 307 307 306 304 302 302 301 300 299 298 297 296 295 294 294 293 292 291
314 315 315 314 314 316 317 316 315 317 318 316 317 318 313 314 313 311 314 314 313 311 309 307 307 307 307 306 305 304 302 301 301 300 299 297 296 295 294 293 293 292 291 291
312 313 313 312 314 314 315 314 314 314 312 316 320 317 312 311 311 313 314 314 312 310 309 307 307 307 307 306 305 303 301 301 301 300 298 297 296 294 293 293 292 291 290 289
310 312 314 314 311 311 312 313 312 312 316 317 316 313 313 313 312 312 313 314 313 312 311 310 308 307 306 305 304 302 301 301 300 299 298 296 295 294 293 292 291 290 289 288
309 311 310 311 311 311 313 314 313 313 313 315 314 314 312 311 311 312 313 313 313 312 309 309 307 306 306 304 303 302 301 300 300 299 297 296 294 293 292 291 290 289 288 287
308 308 308 307 309 312 312 312 311 312 313 312 312 312 310 310 310 312 313 313 313 313 312 310 308 307 305 305 303 302 301 301 301 299 296 296 293 292 291 290 289 288 287 287
304 305 308 308 307 308 309 308 309 310 313 313 312 311 310 310 310 311 312 313 313 312 313 311 309 307 306 304 304 302 301 302 299 297 296 294 292 291 290 289 288 287 286 286
302 304 306 307 306 308 306 307 308 310 311 311 311 310 310 310 311 311 311 314 312 313 313 312 308 305 304 303 302 301 300 300 297 297 294 292 291 290 289 288 287 286 286 285
303 303 305 307 307 307 305 305 306 309 310 310 311 311 311 311 310 310 311 311 312 313 313 312 310 306 302 301 300 300 299 297 299 295 292 290 290 289 288 287 286 285 285 284
305 306 307 305 307 306 304 305 306 307 309 307 307 309 309 310 309 308 309 310 311 312 312 311 306 303 302 301 300 300 298 300 295 292 290 290 289 288 287 286 285 284 284 284
303 303 304 307 307 306 306 306 307 308 306 306 307 308 307 308 308 309 309 310 310 311 312 308 305 304 302 301 299 300 300 297 293 291 289 289 288 287 285 285 284 284 284 283
301 302 303 301 303 304 306 307 307 307 308 309 309 309 309 308 308 308 308 308 306 305 304 303 301 300 300 302 303 300 297 295 292 290 289 288 287 285 284 283 283 283 283 282
303 301 302 301 301 303 304 306 306 306 308 307 308 308 308 307 305 306 305 304 303 301 299 298 300 300 298 299 298 295 294 293 289 289 288 287 285 284 283 283 282 282 281 280
301 303 302 302 301 302 303 303 305 307 306 306 307 307 308 307 304 304 302 300 300 298 298 298 297 295 295 295 295 294 294 289 289 289 287 286 284 283 282 282 281 281 280 279
298 301 301 300 301 303 304 305 306 305 306 306 307 308 307 306 303 302 299 297 296 295 295 297 298 298 297 294 292 291 290 289 288 287 286 284 283 282 281 280 280 280 279 278
300 300 298 297 299 301 302 304 304 304 305 306 306 307 306 305 302 299 296 295 295 295 295 295 297 294 292 291 290 289 288 288 287 286 285 282 281 281 280 280 280 279 278 277